Weather History for KMQB - January, 2013

Change the Weather History Date:

Tuesday, January 22, 2013

  Actual Average (KBRL) Record (KBRL)
Temperature  
Mean Temperature 8 °F 26 °F  
Max Temperature 16 °F 35 °F 61 °F (1964)
Min Temperature 1 °F 17 °F -18 °F (1936)
Degree Days  
Heating Degree Days 56 39  
Month to date heating degree days 858  
Since 1 July heating degree days 3044  
Cooling Degree Days 0 0  
Month to date cooling degree days 0  
Year to date cooling degree days 0  
Moisture  
Dew Point -1 °F    
Average Humidity 66    
Maximum Humidity 85    
Minimum Humidity 43    
Precipitation  
Precipitation 0.00 in 0.03 in 0.35 in (1992)
Month to date precipitation 0.89  
Year to date precipitation 0.89  
Sea Level Pressure  
Sea Level Pressure 30.41 in    
Wind  
Wind Speed 8 mph (WNW)    
Max Wind Speed 14 mph    
Max Gust Speed 17 mph    
Visibility 10 miles    
Events      
T = Trace of Precipitation, MM = Missing Value Source: NWS Daily Summary

Daily Weather History Graph

Daily Weather History Graph

Search for Another Location

Airport or City:

Trip Planner

Search our weather history database for the weather conditions in past years. The results will help you decide how hot, cold, wet, or windy it might be!

Date:

Astronomy

Jan. 22, 2013 Rise Set
Actual Time 7:20 AM CST 5:08 PM CST
Civil Twilight 6:50 AM CST 5:38 PM CST
Nautical Twilight 6:17 AM CST 6:11 PM CST
Astronomical Twilight 5:44 AM CST 6:44 PM CST
Moon 1:31 PM CST (1/22) 3:41 AM CST (1/22)
Length of Visible Light 10h 47m
Length of Day
9h 48m
Waxing Gibbous, 83% of the Moon is Illuminated
Jan 22
Waxing Gibbous
Jan 26
Full
Feb 3
Last Quarter
Feb 10
New
Feb 17
First Quarter

Hourly Weather History & Observations

Time (CST) Temp. Windchill Dew Point Humidity Pressure Visibility Wind Dir Wind Speed Gust Speed Precip Events Conditions
12:15 AM 4.6 °F -9.5 °F -0.8 °F 78% 30.38 in 10.0 mi NW 9.2 mph - N/A   Clear
12:35 AM 5.0 °F -10.0 °F -0.9 °F 76% 30.38 in 10.0 mi NW 10.4 mph - N/A   Clear
12:55 AM 5.0 °F -12.3 °F -1.7 °F 74% 30.38 in 10.0 mi WNW 13.8 mph - N/A   Clear
1:15 AM 4.8 °F -10.2 °F -2.0 °F 73% 30.38 in 10.0 mi WNW 10.4 mph - N/A   Clear
1:35 AM 4.5 °F -11.5 °F -2.2 °F 74% 30.39 in 10.0 mi WNW 11.5 mph - N/A   Clear
1:55 AM 4.3 °F -11.7 °F -2.6 °F 73% 30.39 in 10.0 mi WNW 11.5 mph - N/A   Clear
2:15 AM 4.1 °F -11.1 °F -2.4 °F 75% 30.40 in 10.0 mi WNW 10.4 mph - N/A   Clear
2:35 AM 3.9 °F -11.3 °F -2.2 °F 76% 30.41 in 10.0 mi WNW 10.4 mph - N/A   Clear
2:55 AM 3.9 °F -13.0 °F -2.6 °F 74% 30.41 in 10.0 mi WNW 12.7 mph - N/A   Clear
3:15 AM 3.6 °F -10.9 °F -2.4 °F 76% 30.41 in 10.0 mi WNW 9.2 mph - N/A   Clear
3:35 AM 3.6 °F -12.6 °F -2.4 °F 76% 30.41 in 10.0 mi WNW 11.5 mph - N/A   Clear
3:55 AM 3.2 °F -12.2 °F -3.1 °F 75% 30.41 in 10.0 mi WNW 10.4 mph - N/A   Clear
4:15 AM 3.2 °F -11.3 °F -2.7 °F 76% 30.41 in 10.0 mi WNW 9.2 mph - N/A   Clear
4:35 AM 3.0 °F -10.5 °F -3.1 °F 76% 30.42 in 10.0 mi WNW 8.1 mph - N/A   Clear
4:55 AM 2.8 °F -10.7 °F -3.1 °F 76% 30.41 in 10.0 mi WNW 8.1 mph - N/A   Clear
5:15 AM 2.7 °F -9.7 °F -3.1 °F 77% 30.42 in 10.0 mi WNW 6.9 mph - N/A   Clear
5:35 AM 2.5 °F -12.2 °F -3.1 °F 78% 30.41 in 10.0 mi WNW 9.2 mph - N/A   Clear
5:55 AM 2.7 °F -10.9 °F -3.1 °F 77% 30.42 in 10.0 mi WNW 8.1 mph - N/A   Clear
6:15 AM 2.3 °F -10.2 °F -3.3 °F 77% 30.43 in 10.0 mi WNW 6.9 mph - N/A   Clear
6:35 AM 2.3 °F -8.8 °F -3.5 °F 77% 30.42 in 10.0 mi NW 5.8 mph - N/A   Clear
6:55 AM 2.1 °F -11.6 °F -3.6 °F 77% 30.43 in 10.0 mi NW 8.1 mph - N/A   Clear
7:15 AM 1.8 °F -7.8 °F -3.6 °F 78% 30.43 in 10.0 mi WNW 4.6 mph - N/A   Clear
7:35 AM 1.4 °F -8.3 °F -3.6 °F 79% 30.43 in 10.0 mi WNW 4.6 mph - N/A   Clear
7:55 AM 2.5 °F -8.6 °F -2.4 °F 80% 30.44 in 10.0 mi WNW 5.8 mph - N/A   Clear
8:15 AM 3.2 °F -6.2 °F -2.7 °F 76% 30.45 in 10.0 mi NW 4.6 mph - N/A   Clear
8:35 AM 3.7 °F -7.1 °F -3.1 °F 73% 30.45 in 10.0 mi NW 5.8 mph - N/A   Clear
8:55 AM 4.1 °F -6.7 °F -3.5 °F 71% 30.45 in 10.0 mi NW 5.8 mph - N/A   Clear
9:15 AM 4.5 °F -7.6 °F -3.6 °F 69% 30.45 in 10.0 mi NW 6.9 mph - N/A   Scattered Clouds
9:35 AM 5.4 °F -5.2 °F -4.5 °F 64% 30.46 in 10.0 mi WNW 5.8 mph - N/A   Overcast
9:55 AM 5.9 °F -4.5 °F -4.4 °F 63% 30.47 in 10.0 mi NW 5.8 mph - N/A   Overcast
10:15 AM 6.6 °F -3.7 °F -4.0 °F 62% 30.47 in 10.0 mi West 5.8 mph - N/A   Mostly Cloudy
10:35 AM 7.2 °F -4.3 °F -3.5 °F 62% 30.48 in 10.0 mi West 6.9 mph - N/A   Mostly Cloudy
10:55 AM 7.3 °F -5.2 °F -3.8 °F 60% 30.47 in 10.0 mi West 8.1 mph - N/A   Mostly Cloudy
11:15 AM 8.2 °F -1.8 °F -2.9 °F 60% 30.46 in 10.0 mi West 5.8 mph - N/A   Scattered Clouds
11:35 AM 9.1 °F -5.6 °F -2.6 °F 59% 30.46 in 10.0 mi WNW 11.5 mph - N/A   Scattered Clouds
11:55 AM 9.5 °F -4.4 °F -2.7 °F 58% 30.45 in 10.0 mi WNW 10.4 mph - N/A   Mostly Cloudy
12:15 PM 10.9 °F -1.8 °F -1.5 °F 57% 30.44 in 10.0 mi West 9.2 mph - N/A   Overcast
12:35 PM 12.2 °F -1.8 °F -0.4 °F 57% 30.43 in 10.0 mi West 11.5 mph - N/A   Scattered Clouds
12:55 PM 12.7 °F 3.6 °F -1.8 °F 52% 30.41 in 10.0 mi West 5.8 mph - N/A   Clear
1:15 PM 13.8 °F 0.2 °F -1.7 °F 50% 30.42 in 10.0 mi WNW 11.5 mph - N/A   Clear
1:35 PM 14.5 °F 1.9 °F -2.6 °F 47% 30.41 in 10.0 mi WNW 10.4 mph 17.3 mph N/A   Clear
1:55 PM 14.9 °F 3.1 °F -2.4 °F 46% 30.39 in 10.0 mi West 9.2 mph - N/A   Clear
2:15 PM 14.9 °F 4.0 °F -2.0 °F 47% 30.39 in 10.0 mi NW 8.1 mph - N/A   Clear
2:35 PM 15.4 °F 3.8 °F -2.2 °F 46% 30.38 in 10.0 mi West 9.2 mph - N/A   Clear
2:55 PM 16.3 °F 6.7 °F -1.7 °F 45% 30.39 in 10.0 mi NW 6.9 mph 17.3 mph N/A   Clear
3:15 PM 16.0 °F 5.3 °F -1.8 °F 45% 30.38 in 10.0 mi WNW 8.1 mph - N/A   Clear
3:35 PM 16.0 °F 7.4 °F -2.9 °F 43% 30.38 in 10.0 mi WNW 5.8 mph - N/A   Clear
3:55 PM 15.8 °F 2.7 °F -2.2 °F 45% 30.38 in 10.0 mi West 11.5 mph - N/A   Clear
4:15 PM 16.5 °F 6.9 °F -1.8 °F 44% 30.38 in 10.0 mi West 6.9 mph - N/A   Scattered Clouds
4:35 PM 15.8 °F 5.1 °F -1.7 °F 46% 30.37 in 10.0 mi West 8.1 mph - N/A   Mostly Cloudy
4:55 PM 16.2 °F 5.5 °F -2.0 °F 45% 30.37 in 10.0 mi West 8.1 mph - N/A   Overcast
5:15 PM 15.8 °F 6.1 °F -1.8 °F 46% 30.37 in 10.0 mi West 6.9 mph - N/A   Overcast
5:35 PM 15.8 °F 5.1 °F -2.2 °F 45% 30.37 in 10.0 mi West 8.1 mph - N/A   Overcast
5:55 PM 15.8 °F 5.1 °F -1.3 °F 47% 30.37 in 10.0 mi West 8.1 mph - N/A   Overcast
6:15 PM 15.8 °F 6.1 °F -0.9 °F 48% 30.37 in 10.0 mi West 6.9 mph - N/A   Overcast
6:35 PM 15.1 °F 7.7 °F 0.3 °F 52% 30.37 in 10.0 mi West 4.6 mph - N/A   Mostly Cloudy
6:55 PM 13.8 °F 8.0 °F 1.2 °F 57% 30.37 in 10.0 mi WNW 3.5 mph - N/A   Mostly Cloudy
7:15 PM 13.8 °F 8.0 °F 2.3 °F 60% 30.37 in 10.0 mi North 3.5 mph - N/A   Overcast
7:35 PM 13.1 °F - 2.1 °F 62% 30.37 in 10.0 mi Calm Calm - N/A   Scattered Clouds
7:55 PM 12.6 °F - 2.7 °F 65% 30.38 in 10.0 mi Calm Calm - N/A   Clear
8:15 PM 10.9 °F - 3.6 °F 72% 30.38 in 10.0 mi Calm Calm - N/A   Scattered Clouds
8:35 PM 10.6 °F 4.3 °F 4.6 °F 77% 30.38 in 10.0 mi WSW 3.5 mph - N/A   Mostly Cloudy
8:55 PM 10.4 °F - 5.0 °F 79% 30.38 in 10.0 mi Calm Calm - N/A   Mostly Cloudy
9:15 PM 11.1 °F - 5.0 °F 76% 30.38 in 10.0 mi Calm Calm - N/A   Scattered Clouds
9:35 PM 11.3 °F - 5.0 °F 76% 30.38 in 10.0 mi Calm Calm - N/A   Scattered Clouds
9:55 PM 10.9 °F - 5.0 °F 77% 30.38 in 10.0 mi Calm Calm - N/A   Clear
10:15 PM 10.4 °F - 4.6 °F 78% 30.39 in 10.0 mi Calm Calm - N/A   Scattered Clouds
10:35 PM 10.4 °F - 5.9 °F 82% 30.38 in 10.0 mi Calm Calm - N/A   Mostly Cloudy
10:55 PM 10.8 °F - 5.9 °F 81% 30.38 in 10.0 mi Calm Calm - N/A   Overcast
11:15 PM 10.4 °F - 6.4 °F 84% 30.38 in 10.0 mi Calm Calm - N/A   Overcast
11:35 PM 11.1 °F - 6.8 °F 83% 30.38 in 10.0 mi Calm Calm - N/A   Overcast
11:55 PM 12.2 °F - 8.6 °F 85% 30.38 in 10.0 mi Calm Calm - N/A   Overcast